Total_Precipitation_Accumulation
1.65 1.69 1.86 2.04 2.10 2.18 2.33 2.28 2.22 2.24 2.36 2.43 2.46 2.47 2.38 2.27 2.40 2.64 2.71 2.91 3.00 3.06 3.04 3.11 3.09 3.23 3.27 3.20 3.36 3.47 3.69 3.89 3.42 2.72 2.80 2.95 2.93 2.71 2.55 2.34 2.20 2.17 2.12
1.59 1.71 1.87 2.00 2.06 2.16 2.21 2.31 2.36 2.34 2.43 2.50 2.51 2.48 2.28 2.26 2.39 2.49 2.60 2.78 2.89 3.00 3.15 3.29 3.01 3.17 3.31 3.25 3.31 3.26 3.38 3.72 3.53 3.24 3.14 3.20 3.15 2.88 2.68 2.43 2.05 1.83 1.89
1.78 1.84 1.83 1.87 1.88 1.98 2.10 2.19 2.31 2.40 2.46 2.50 2.51 2.41 2.33 2.39 2.50 2.58 2.68 2.82 2.85 2.91 3.08 3.06 2.97 3.16 3.05 3.17 3.27 3.16 3.16 3.21 3.37 3.21 2.95 3.02 2.96 2.79 2.65 2.35 2.09 2.05 1.79
1.75 1.80 1.83 1.86 1.95 2.08 2.21 2.29 2.35 2.34 2.36 2.32 2.27 2.34 2.41 2.45 2.51 2.57 2.59 2.63 2.65 2.70 2.70 2.61 2.54 2.60 2.67 2.91 2.89 2.87 2.97 3.08 3.18 3.04 2.88 2.92 2.92 2.96 2.83 2.50 2.36 2.21 1.98
1.73 1.71 1.82 2.02 2.10 2.17 2.17 2.18 2.23 2.22 2.11 2.26 2.26 2.34 2.41 2.36 2.25 2.39 2.45 2.40 2.57 2.48 2.34 2.28 2.29 2.41 2.48 2.58 2.40 2.49 2.74 2.80 2.87 2.95 2.92 3.04 3.03 3.17 3.01 2.72 2.59 2.49 2.20
1.71 1.80 1.90 1.98 1.97 2.06 2.09 2.08 2.10 2.16 2.22 2.26 2.26 2.37 2.41 2.23 2.36 2.42 2.47 2.47 2.51 2.42 2.37 2.28 2.15 2.20 2.24 2.28 2.25 2.28 2.47 2.59 2.73 2.91 2.89 2.95 3.00 3.03 3.05 2.92 2.81 2.61 2.30
1.69 1.76 1.99 2.10 2.01 2.09 2.12 2.15 2.14 2.18 2.34 2.40 2.48 2.53 2.44 2.56 2.58 2.39 2.43 2.39 2.43 2.43 2.42 2.40 2.09 1.90 2.14 2.09 2.21 2.15 2.08 2.17 2.29 2.44 2.49 2.58 2.83 2.97 3.13 3.05 3.09 2.93 2.58
1.80 1.94 2.25 2.41 2.25 2.25 2.28 2.29 2.35 2.48 2.53 2.59 2.61 2.52 2.48 2.57 2.63 2.29 2.23 2.13 2.18 2.24 2.26 2.32 2.36 2.28 2.28 2.31 2.35 2.26 2.09 2.04 2.18 2.15 2.11 2.33 2.73 3.09 3.19 3.15 3.26 3.11 2.72
2.02 2.18 2.45 2.69 2.79 2.74 2.56 2.63 2.72 2.72 2.68 2.74 2.79 2.76 2.62 2.68 2.62 2.24 2.12 1.97 2.02 2.05 2.09 2.10 2.14 2.08 2.18 2.12 2.06 2.00 1.94 1.86 1.86 1.89 1.87 2.00 2.32 2.76 3.01 3.07 3.18 3.13 2.84
2.18 2.22 2.44 2.72 2.84 2.82 2.79 2.97 3.07 2.95 2.82 2.86 2.74 2.62 2.49 2.52 2.56 2.21 2.00 1.84 1.92 1.98 2.07 2.03 2.02 1.93 1.95 1.86 1.75 1.75 1.67 1.68 1.82 1.86 1.81 1.78 1.89 2.23 2.63 2.63 2.75 2.93 2.68
2.35 2.34 2.46 2.72 3.03 2.99 3.05 3.13 3.19 3.17 3.18 3.17 3.04 2.90 2.71 2.61 2.64 2.31 2.08 1.85 1.86 1.90 1.81 1.77 1.80 1.83 1.64 1.60 1.59 1.56 1.62 1.69 1.84 1.87 1.85 1.86 1.93 2.02 2.16 2.26 2.41 2.53 2.53
2.47 2.47 2.55 2.82 2.94 2.97 3.12 3.18 3.30 3.42 3.42 3.36 3.31 3.03 2.90 2.76 2.48 2.20 2.02 1.96 2.00 2.00 1.90 1.83 1.85 1.80 1.60 1.56 1.40 1.36 1.50 1.50 1.47 1.60 1.65 1.65 1.72 1.79 1.90 2.11 2.31 2.43 2.48
2.25 2.29 2.41 2.58 2.71 2.87 2.99 2.94 3.02 3.17 3.13 3.11 3.04 2.86 2.85 2.93 2.72 2.28 1.97 1.90 1.97 1.99 2.05 2.12 1.94 1.79 1.68 1.59 1.57 1.51 1.42 1.32 1.37 1.43 1.46 1.44 1.54 1.70 1.92 2.15 2.35 2.60 2.59
2.10 2.11 2.24 2.46 2.60 2.70 2.77 2.74 2.79 2.82 2.87 2.90 2.89 2.78 2.77 2.89 2.84 2.52 2.17 1.96 1.88 1.83 1.84 1.86 1.76 1.75 1.66 1.52 1.50 1.42 1.28 1.29 1.36 1.34 1.41 1.50 1.64 1.84 1.96 1.96 2.08 2.35 2.54
2.24 2.23 2.36 2.44 2.50 2.64 2.72 2.75 2.78 2.75 2.74 2.75 2.70 2.62 2.61 2.69 2.74 2.57 2.26 2.04 1.96 1.93 1.89 1.84 1.81 1.84 1.74 1.64 1.56 1.54 1.58 1.59 1.52 1.44 1.51 1.62 1.69 1.79 1.92 1.96 2.04 2.11 2.14
2.45 2.41 2.38 2.32 2.39 2.38 2.39 2.36 2.37 2.34 2.34 2.32 2.29 2.19 2.12 2.30 2.33 2.05 1.89 1.91 1.93 1.93 1.80 1.74 1.81 1.86 1.84 1.81 1.76 1.69 1.69 1.69 1.64 1.61 1.64 1.71 1.79 1.87 1.95 2.07 2.19 2.21 2.09
2.54 2.40 2.28 2.17 2.16 2.19 2.25 2.30 2.33 2.26 2.20 2.11 2.03 1.89 1.76 1.97 2.02 1.88 1.78 1.77 1.73 1.72 1.62 1.63 1.68 1.79 1.88 1.83 1.74 1.67 1.63 1.66 1.75 1.75 1.75 1.81 1.91 1.99 2.06 2.11 2.26 2.40 2.34
2.57 2.45 2.23 2.11 2.08 2.08 2.22 2.30 2.27 2.24 2.18 1.97 1.84 1.78 1.64 1.71 1.82 1.78 1.71 1.57 1.47 1.43 1.41 1.55 1.66 1.74 1.83 1.81 1.72 1.73 1.76 1.79 1.79 1.80 1.86 1.95 2.01 2.06 2.11 2.14 2.22 2.36 2.38
2.47 2.40 2.28 2.23 2.23 2.14 2.10 2.15 2.14 2.12 2.14 2.04 1.85 1.82 1.82 1.79 1.85 1.81 1.64 1.42 1.45 1.47 1.47 1.51 1.56 1.65 1.71 1.74 1.77 1.82 1.87 1.92 1.89 1.93 2.03 2.13 2.13 2.19 2.13 2.16 2.30 2.50 2.50
2.14 2.19 2.17 2.21 2.20 2.15 2.14 2.17 2.22 2.27 2.28 2.16 2.00 1.89 1.79 1.77 1.76 1.75 1.62 1.51 1.51 1.49 1.49 1.56 1.63 1.69 1.74 1.79 1.91 2.01 2.04 2.09 2.12 2.14 2.21 2.25 2.18 2.19 2.20 2.22 2.31 2.38 2.42
1.89 1.85 1.84 1.80 1.85 1.96 2.03 2.13 2.25 2.32 2.35 2.23 2.00 1.84 1.75 1.58 1.59 1.56 1.58 1.63 1.63 1.66 1.71 1.74 1.80 1.87 1.92 1.99 2.08 2.18 2.23 2.24 2.27 2.24 2.25 2.35 2.34 2.34 2.37 2.31 2.28 2.38 2.42
1.94 1.77 1.61 1.57 1.62 1.77 1.99 2.14 2.21 2.17 2.12 2.07 1.97 1.89 1.90 1.63 1.50 1.50 1.54 1.57 1.60 1.65 1.69 1.72 1.73 1.80 1.88 1.96 2.02 2.09 2.15 2.18 2.20 2.22 2.20 2.22 2.23 2.21 2.28 2.29 2.26 2.36 2.50
1.75 1.56 1.40 1.39 1.48 1.66 1.90 2.21 2.23 2.02 1.88 1.85 1.90 1.91 1.87 1.77 1.66 1.60 1.60 1.59 1.56 1.53 1.55 1.64 1.67 1.71 1.79 1.82 1.85 1.92 1.95 1.98 2.00 2.07 2.14 2.11 2.14 2.16 2.21 2.27 2.28 2.34 2.45
1.61 1.47 1.36 1.35 1.42 1.56 1.84 2.14 2.07 1.91 1.80 1.81 1.84 1.87 1.84 1.82 1.74 1.68 1.67 1.67 1.62 1.55 1.53 1.59 1.62 1.64 1.69 1.76 1.74 1.69 1.67 1.68 1.69 1.84 2.01 2.13 2.16 2.20 2.18 2.21 2.28 2.29 2.40
1.50 1.47 1.42 1.45 1.51 1.67 1.95 2.14 2.05 1.92 1.86 1.85 1.85 1.91 1.92 1.87 1.82 1.82 1.83 1.86 1.82 1.79 1.71 1.60 1.57 1.53 1.50 1.55 1.62 1.61 1.68 1.57 1.49 1.53 1.65 1.86 1.94 2.03 2.07 2.12 2.27 2.34 2.40
1.50 1.51 1.51 1.55 1.62 1.77 1.92 1.98 1.95 1.91 1.94 1.91 1.88 1.91 2.00 2.02 2.00 2.00 2.00 1.95 1.87 1.79 1.67 1.55 1.48 1.48 1.46 1.39 1.35 1.36 1.38 1.33 1.32 1.40 1.43 1.50 1.63 1.77 1.92 2.02 2.09 2.19 2.24